Meteo pe oră la Abella de la Conca

Astăzi, 24 Iulie, Sâmbătă

Timp Temperatura Precipitaţii Vânt Presiune Umiditate
00:00 +17°C° 0 mm 2 m/s 655 mmHg 51%
01:00 +18°C° 0 mm 1 m/s 654 mmHg 51%
02:00 +18°C° 0 mm 1 m/s 654 mmHg 52%
03:00 +18°C° 0 mm 1 m/s 654 mmHg 52%
04:00 +18°C° 0 mm 1 m/s 654 mmHg 52%
05:00 +19°C° 0 mm 1 m/s 654 mmHg 52%
06:00 +19°C° 0 mm 1 m/s 654 mmHg 51%
07:00 +21°C° 0 mm 1 m/s 654 mmHg 44%
08:00 +24°C° 0 mm 2 m/s 655 mmHg 37%
09:00 +26°C° 0 mm 3 m/s 656 mmHg 29%
10:00 +27°C° 0 mm 4 m/s 656 mmHg 26%
11:00 +28°C° 0 mm 4 m/s 656 mmHg 23%
12:00 +29°C° 0 mm 5 m/s 656 mmHg 19%
13:00 +29°C° 0 mm 5 m/s 656 mmHg 18%
14:00 +29°C° 0 mm 4 m/s 656 mmHg 16%
15:00 +30°C° 0 mm 4 m/s 656 mmHg 15%
16:00 +29°C° 0 mm 4 m/s 655 mmHg 16%
17:00 +28°C° 0 mm 3 m/s 655 mmHg 18%
18:00 +27°C° 0 mm 2 m/s 655 mmHg 19%
19:00 +25°C° 0 mm 2 m/s 655 mmHg 24%
20:00 +21°C° 0 mm 2 m/s 655 mmHg 29%
21:00 +20°C° 0 mm 1 m/s 655 mmHg 34%
22:00 +20°C° 0 mm 1 m/s 654 mmHg 37%
23:00 +19°C° 0 mm 1 m/s 654 mmHg 40%

Mâine, 25 Iulie, Duminică

Timp Temperatura Precipitaţii Vânt Presiune Umiditate
00:00 +19°C° 0 mm 1 m/s 654 mmHg 43%
01:00 +18°C° 0 mm 1 m/s 654 mmHg 45%
02:00 +16°C° 0 mm 1 m/s 653 mmHg 48%
03:00 +15°C° 0 mm 1 m/s 653 mmHg 50%
04:00 +15°C° 0 mm 1 m/s 653 mmHg 51%
05:00 +16°C° 0 mm 1 m/s 654 mmHg 52%
06:00 +16°C° 0 mm 1 m/s 654 mmHg 52%
07:00 +19°C° 0 mm 1 m/s 654 mmHg 49%
08:00 +20°C° 0 mm 2 m/s 655 mmHg 45%
09:00 +23°C° 0 mm 2 m/s 655 mmHg 41%
10:00 +24°C° 0 mm 3 m/s 655 mmHg 39%
11:00 +25°C° 0 mm 3 m/s 655 mmHg 36%
12:00 +26°C° 0 mm 3 m/s 655 mmHg 33%
13:00 +27°C° 0 mm 3 m/s 655 mmHg 31%
14:00 +27°C° 0 mm 3 m/s 655 mmHg 28%
15:00 +28°C° 0 mm 3 m/s 655 mmHg 26%
16:00 +27°C° 0 mm 3 m/s 655 mmHg 27%
17:00 +26°C° 0 mm 3 m/s 655 mmHg 29%
18:00 +26°C° 0 mm 2 m/s 655 mmHg 30%
19:00 +23°C° 0 mm 2 m/s 654 mmHg 42%
20:00 +19°C° 0 mm 2 m/s 654 mmHg 55%
21:00 +16°C° 0 mm 2 m/s 654 mmHg 68%
22:00 +15°C° 0.2 mm 2 m/s 654 mmHg 72%
23:00 +14°C° 0.2 mm 2 m/s 654 mmHg 77%

Poimâine, 26 Iulie, Luni

Timp Temperatura Precipitaţii Vânt Presiune Umiditate
00:00 +14°C° 0.2 mm 2 m/s 654 mmHg 81%
01:00 +13°C° 0.4 mm 2 m/s 654 mmHg 82%
02:00 +13°C° 0.4 mm 1 m/s 654 mmHg 84%
03:00 +13°C° 0.4 mm 1 m/s 654 mmHg 85%
04:00 +13°C° 0.1 mm 1 m/s 654 mmHg 82%
05:00 +14°C° 0.1 mm 1 m/s 655 mmHg 80%
06:00 +14°C° 0.1 mm 0 m/s 655 mmHg 77%
07:00 +18°C° 0.1 mm 1 m/s 655 mmHg 69%
08:00 +20°C° 0.1 mm 1 m/s 656 mmHg 61%
09:00 +21°C° 0.1 mm 2 m/s 656 mmHg 53%
10:00 +23°C° 0.8 mm 2 m/s 656 mmHg 51%
11:00 +22°C° 0.8 mm 3 m/s 657 mmHg 49%
12:00 +24°C° 0.8 mm 3 m/s 657 mmHg 47%
13:00 +24°C° 1 mm 3 m/s 657 mmHg 46%
14:00 +24°C° 1 mm 3 m/s 657 mmHg 45%
15:00 +25°C° 1 mm 3 m/s 656 mmHg 44%
16:00 +22°C° 0.6 mm 3 m/s 656 mmHg 50%
17:00 +21°C° 0.6 mm 3 m/s 656 mmHg 56%
18:00 +19°C° 0.6 mm 3 m/s 656 mmHg 63%
19:00 +17°C° 1.9 mm 3 m/s 656 mmHg 71%
20:00 +16°C° 1.9 mm 2 m/s 656 mmHg 80%
21:00 +14°C° 1.9 mm 2 m/s 656 mmHg 89%
22:00 +14°C° 0.3 mm 2 m/s 656 mmHg 87%
23:00 +14°C° 0.3 mm 1 m/s 656 mmHg 86%

27 Iulie, Marţi

Timp Temperatura Precipitaţii Vânt Presiune Umiditate
00:00 +13°C° 0.3 mm 1 m/s 656 mmHg 85%
01:00 +13°C° 0 mm 1 m/s 655 mmHg 85%
02:00 +13°C° 0 mm 1 m/s 655 mmHg 86%
03:00 +13°C° 0 mm 1 m/s 655 mmHg 86%
04:00 +13°C° 0 mm 1 m/s 655 mmHg 84%
05:00 +14°C° 0 mm 1 m/s 655 mmHg 83%
06:00 +14°C° 0 mm 1 m/s 656 mmHg 81%
07:00 +18°C° 0 mm 1 m/s 656 mmHg 73%
08:00 +20°C° 0 mm 1 m/s 657 mmHg 64%
09:00 +22°C° 0 mm 1 m/s 657 mmHg 56%
10:00 +23°C° 0 mm 2 m/s 657 mmHg 51%
11:00 +24°C° 0 mm 2 m/s 658 mmHg 47%
12:00 +26°C° 0 mm 2 m/s 658 mmHg 42%
13:00 +26°C° 0.2 mm 3 m/s 657 mmHg 42%
14:00 +26°C° 0.2 mm 3 m/s 657 mmHg 41%
15:00 +26°C° 0.2 mm 3 m/s 657 mmHg 41%
16:00 +25°C° 0.3 mm 3 m/s 657 mmHg 48%
17:00 +22°C° 0.3 mm 3 m/s 657 mmHg 56%
18:00 +21°C° 0.3 mm 2 m/s 656 mmHg 63%
19:00 +19°C° 1.1 mm 2 m/s 657 mmHg 72%
20:00 +18°C° 1.1 mm 2 m/s 657 mmHg 80%
21:00 +16°C° 1.1 mm 1 m/s 657 mmHg 88%
22:00 +16°C° 0.8 mm 1 m/s 657 mmHg 89%
23:00 +16°C° 0.8 mm 1 m/s 657 mmHg 90%

28 Iulie, Miercuri

Timp Temperatura Precipitaţii Vânt Presiune Umiditate
00:00 +15°C° 0.8 mm 1 m/s 657 mmHg 91%
01:00 +15°C° 0.1 mm 1 m/s 657 mmHg 91%
02:00 +15°C° 0.1 mm 1 m/s 657 mmHg 91%
03:00 +14°C° 0.1 mm 1 m/s 657 mmHg 91%
04:00 +14°C° 0 mm 0 m/s 657 mmHg 90%
05:00 +14°C° 0 mm 0 m/s 658 mmHg 88%
06:00 +15°C° 0 mm 0 m/s 658 mmHg 87%
07:00 +16°C° 0 mm 0 m/s 658 mmHg 80%
08:00 +20°C° 0 mm 1 m/s 659 mmHg 73%
09:00 +22°C° 0 mm 1 m/s 659 mmHg 66%
10:00 +23°C° 0 mm 2 m/s 660 mmHg 60%
11:00 +25°C° 0 mm 2 m/s 660 mmHg 55%
12:00 +26°C° 0 mm 3 m/s 660 mmHg 49%
13:00 +27°C° 0.2 mm 3 m/s 660 mmHg 48%
14:00 +27°C° 0.2 mm 3 m/s 660 mmHg 46%
15:00 +27°C° 0.2 mm 3 m/s 660 mmHg 45%
16:00 +27°C° 0.1 mm 2 m/s 660 mmHg 47%
17:00 +26°C° 0.1 mm 2 m/s 659 mmHg 49%
18:00 +26°C° 0.1 mm 1 m/s 659 mmHg 50%
19:00 +24°C° 0 mm 1 m/s 659 mmHg 57%
20:00 +22°C° 0 mm 1 m/s 659 mmHg 64%
21:00 +20°C° 0 mm 1 m/s 659 mmHg 70%
22:00 +19°C° 0 mm 1 m/s 659 mmHg 72%
23:00 +19°C° 0 mm 1 m/s 659 mmHg 74%

29 Iulie, Joi

Timp Temperatura Precipitaţii Vânt Presiune Umiditate
00:00 +18°C° 0 mm 1 m/s 658 mmHg 75%
01:00 +18°C° 0.1 mm 1 m/s 658 mmHg 77%
02:00 +18°C° 0.1 mm 1 m/s 658 mmHg 78%
03:00 +18°C° 0.1 mm 1 m/s 658 mmHg 80%
04:00 +18°C° 0 mm 1 m/s 658 mmHg 77%
05:00 +19°C° 0 mm 1 m/s 658 mmHg 75%
06:00 +19°C° 0 mm 1 m/s 658 mmHg 73%
07:00 +22°C° 0 mm 1 m/s 659 mmHg 61%
08:00 +24°C° 0 mm 1 m/s 659 mmHg 50%
09:00 +27°C° 0 mm 1 m/s 660 mmHg 38%
10:00 +28°C° 0 mm 2 m/s 660 mmHg 34%
11:00 +29°C° 0 mm 2 m/s 660 mmHg 30%
12:00 +30°C° 0 mm 2 m/s 660 mmHg 26%
13:00 +31°C° 0 mm 2 m/s 660 mmHg 26%
14:00 +31°C° 0 mm 3 m/s 659 mmHg 25%
15:00 +31°C° 0 mm 3 m/s 659 mmHg 25%
16:00 +30°C° 0 mm 3 m/s 658 mmHg 28%
17:00 +29°C° 0 mm 2 m/s 658 mmHg 31%
18:00 +28°C° 0 mm 2 m/s 658 mmHg 35%
19:00 +26°C° 0 mm 2 m/s 657 mmHg 40%
20:00 +23°C° 0 mm 2 m/s 657 mmHg 44%
21:00 +20°C° 0 mm 2 m/s 657 mmHg 49%
22:00 +19°C° 0 mm 2 m/s 656 mmHg 51%
23:00 +19°C° 0 mm 2 m/s 656 mmHg 53%
Arată mai mult

Formular de consimțământ

Meteoprog și furnizorii noștri de servicii pot stoca și accesa date personale, precum cookies, identificatori de dispozitiv sau alte tehnologii similare pe dispozitivul dumneavoastră și procesa astfel de date pentru a personaliza conținutul și reclamele, dar și pentru a oferi caracteristici de social media și pentru a analiza traficul.

  • Stocarea și/sau accesarea informațiilor pe dispozitivul dumneavoastră

    Cookies, identificatori de dispozitiv sau alte informații pot fi stocate sau accesate pe dispozitiv în scopurile indicate mai sus.

  • Reclame și conținut personalizat, evaluarea reclamelor și a conținutului, informații despre audiențe și dezvoltarea produselor

    Reclamele și conținutul pot fi personalizate pe baza unui profil. Pot fi adăugate date suplimentare pentru a personaliza mai bine reclamele și conținutul. Performanța reclamelor și conținutului poate fi măsurată. Pot fi obținute informații despre utilizatorii care au văzut reclamele și conținutul. Aceste date pot fi utilizate pentru a dezvolta sau îmbunătăți experiența utilizatorilor, sistemele și software-ul.

Dând clic pe ‘Sunt de acord’, permiteți utilizarea cookie-urilor menționate, a identificatorilor de dispozitiv, balizelor web sau altor tehnologii similare. Setările pot fi modificate din browser-ul dispozitivului dumneavoastră.

În anumite scopuri, interesele legitime pot prima asupra consimțământului. Puteți citi mai multe informații în acest sens în Politica privind Confidențialitatea Datelor și Cookie.